This demonstration page uses our WeatherBlox Daily Observations layout. Learn more.

Left ArrowRight Arrow

30.21309, -93.2044

Hourly Observations for April 5, 2022

Temp ( °F °C ) Dew Point ( °F °C ) Humidity (%) Winds ( mph kmh ) Pressure ( in mb ) Visibility ( mi km ) Precip ( " mm )
12:15 am 00:15 Cloudy 70 21.2 67 19.7 91 91 SSE 13 20 29.72 1006 10 16 0.00 0.00
12:35 am 00:35 Cloudy 70 21.2 67 19.7 91 91 SSE 13 20 29.72 1006 10 16 0.00 0.00
12:55 am 00:55 Cloudy 70 21.2 68 19.9 92 92 SSE 12 19 29.71 1006 10 16 0.00 0.00
1:15 am 01:15 Cloudy 71 21.4 68 20.2 93 93 S 10 17 29.71 1006 7 11 0.00 0.00
1:35 am 01:35 Cloudy 71 21.5 69 20.4 93 93 S 14 22 29.69 1005 7 11 0.00 0.00
1:55 am 01:55 Cloudy with Mist and Fog 71 21.6 69 20.6 94 94 S 13 20 29.68 1005 7 11 0.00 0.00
2:15 am 02:15 Cloudy with Mist and Fog 71 21.7 69 20.8 95 95 S 13 20 29.68 1005 7 11 0.00 0.00
2:35 am 02:35 Cloudy 71 21.8 70 20.9 95 95 S 13 20 29.68 1005 7 11 0.00 0.00
2:55 am 02:55 Cloudy 71 21.9 70 21 95 95 SSW 13 20 29.68 1005 7 11 0.00 0.00
3:15 am 03:15 Cloudy 72 22.1 70 21.1 94 94 SSW 13 20 29.69 1005 10 16 0.00 0.00
3:35 am 03:35 Cloudy 72 22.3 70 21.2 94 94 S 13 20 29.68 1005 10 16 0.00 0.00
3:55 am 03:55 Cloudy 72 22.4 70 21.3 94 94 SSW 13 20 29.68 1005 10 16 0.00 0.00
4:15 am 04:15 Cloudy 73 22.5 70 21.3 93 93 SSW 13 20 29.69 1005 10 16 0.00 0.00
4:35 am 04:35 Cloudy 73 22.6 70 21.3 92 92 SSW 10 17 29.69 1005 10 16 0.00 0.00
4:55 am 04:55 Cloudy 73 22.6 70 21.3 92 92 SSW 12 19 29.69 1005 10 16 0.00 0.00
5:15 am 05:15 Cloudy 73 22.5 70 21.2 92 92 SW 10 17 29.69 1005 10 16 0.00 0.00
5:35 am 05:35 Cloudy 73 22.5 70 21.3 93 93 SW 13 20 29.70 1006 7 11 0.00 0.00
6:00 am 06:00 Cloudy with Light Rain 72 22 70 21 94 94 SW 12 19 29.70 1006 6 10 0.00 0.00
6:47 am 06:47 Cloudy with Light Rain 72 22 72 22 100 100 SW 12 19 29.69 1005 6 10 0.00 0.00
7:47 am 07:47 Cloudy with Light Rain 73 23 72 22 94 94 SW 15 24 29.69 1005 5 8 0.00 0.00
8:47 am 08:47 Cloudy with Mist and Fog 73 23 72 22 94 94 WSW 14 22 29.73 1007 5 8 0.00 0.00
9:50 am 09:50 Cloudy with Mist and Fog 75 24 72 22 89 89 SW 14 22 29.72 1006 6 10 0.00 0.00
10:50 am 10:50 Cloudy with Mist and Fog 75 24 72 22 89 89 SW 14 22 29.71 1006 6 10 0.00 0.00
11:50 am 11:50 Cloudy with Mist and Fog 79 26 72 22 79 79 SW 15 24 29.71 1006 6 10 0.00 0.00
12:50 pm 12:50 Cloudy with Mist and Fog 81 27 72 22 74 74 WSW 14 22 29.68 1005 6 10 0.00 0.00
1:50 pm 13:50 Cloudy with Mist and Fog 79 26 72 22 79 79 SSW 13 20 29.68 1005 6 10 0.00 0.00
2:50 pm 14:50 Cloudy with Mist and Fog 79 26 72 22 79 79 SSW 14 22 29.66 1004 6 10 0.00 0.00
3:46 pm 15:46 Cloudy with Mist and Fog 79 26 72 22 79 79 SSW 14 22 29.64 1004 6 10 0.00 0.00
4:55 pm 16:55 Mostly Cloudy with Haze 81 27 72 22 74 74 SSW 12 19 29.62 1003 7 11 0.00 0.00
5:55 pm 17:55 Partly Cloudy 79 26 72 22 79 79 SSW 12 19 29.61 1003 10 16 0.00 0.00
6:52 pm 18:52 Hazy 75 24 70 21 83 83 S 10 17 29.62 1003 7 11 0.00 0.00
7:55 pm 19:55 Partly Cloudy 73 23 70 21 89 89 SSW 8 13 29.63 1003 10 16 0.00 0.00
8:55 pm 20:55 Mostly Clear 72 22 70 21 94 94 S 7 11 29.64 1004 10 16 0.00 0.00
9:55 pm 21:55 Mostly Clear 68 20 66 19 94 94 S 6 9 29.66 1004 10 16 0.00 0.00
10:15 pm 22:15 Clear 70 21 68 20.2 95 95 S 7 11 29.66 1004 7 11 0.00 0.00
10:35 pm 22:35 Mostly Cloudy with Mist and Fog 70 21 68 20.1 95 95 S 7 11 29.66 1004 7 11 0.00 0.00
10:55 pm 22:55 Cloudy with Mist and Fog 71 21.5 69 20.7 95 95 S 8 13 29.66 1004 7 11 0.00 0.00
11:15 pm 23:15 Cloudy with Mist and Fog 72 22.1 70 21.2 95 95 S 9 15 29.66 1004 7 11 0.00 0.00
11:35 pm 23:35 Cloudy 73 22.5 71 21.4 94 94 S 10 17 29.66 1004 7 11 0.00 0.00
11:55 pm 23:55 Cloudy 73 22.6 71 21.5 94 94 S 8 13 29.66 1004 7 11 0.00 0.00

Powered by AerisWeather